{"data":{"norad_id":65268,"intl_designator":"2025-182B","name":"COSMOS 2592","alt_names":[],"object_type":"PAYLOAD","status":"ACTIVE","operator":null,"country":"CIS","launch_date":"2025-08-21","launch_site_code":"PLMSC","launch_vehicle":null,"mission":null,"orbit_class":"UNKNOWN","rcs_meters":null,"size_class":null,"mass_kg":null,"dimensions":null,"purposes":[],"wikipedia_slug":null,"has_3d_model":false,"image_url":null,"decayed_at":null,"tle_current":{"epoch":"2026-05-25T02:49:16.111776Z","epoch_age_seconds":71854,"freshness":"FRESH","line1":"1 65268U 25182B   26145.11754759  .00040264  24759-5  98242-4 0  9999","line2":"2 65268  96.5902  76.7237 0003157 187.8128 172.3102 15.96418727 44018","mean_motion":15.96418727,"eccentricity":0.0003157,"inclination_deg":96.5902,"raan_deg":76.7237,"arg_perigee_deg":187.8128,"mean_anomaly_deg":172.3102,"bstar":9.8242e-5,"rev_number":4401,"period_min":90.201898514812,"perigee_km":282.2608269943,"apogee_km":286.46753023848,"semimajor_km":6662.5011786164,"source":"CELESTRAK","updated_at":"2026-05-25T13:38:05.285858Z"}}}